Location: São Paulo
(23.5507°S, 46.6334°W)
Time: 07:48:45
(UTC-03:00)

Explorer 7 - Pass Details

Date: 16 February 2026
Orbit: 430 x 541 km, 50.2° (Epoch: 11 March)

Event Time Altitude Azimuth Distance (km) Brightness Sun altitude
Rises 02:18:05 0° 314° (NW) 2,695 - -44.0°
Reaches altitude 10° 02:20:20 10° 312° (NW) 1,803 - -43.7°
Maximum altitude 02:24:26 71° 227° (SW) 572 - -43.1°
Drops below altitude 10° 02:28:29 10° 143° (SE) 1,778 - -42.4°
Exits shadow 02:29:56 - 141° (SE) 2,349 10.8 -42.2°
Sets 02:30:42 0° 140° (SE) 2,655 11.1 -42.1°
